Погода в Гувахати

Индия     26°10′40″N   91°44′51″E
темп.,
°C
ветер,
м/с
пор.,
м/с
влажн.,
%
обл.,
%
осадки,
мм/ч
давл.,
гПа
погр.,
м
25 октября, пн
пн2523:30+22ююз118521 0.1 101312
02:30+22юз118883 0.6 101219
05:30+22вюв1189100 1.1 101221
08:30+22в119197 0.3 1015104
11:30+25ссв118011 0.3 1012333
14:30+27ссз11682 0.0 1009687
17:30+24юз01800 0.3 100911
20:30+23ю11840 0.3 101113
26 октября, вт
вт2623:30+21юз11932 2.1 101213
02:30+20юв11930 0.4 101011
05:30+20в11940 0.9 101211
08:30+24всв228110 0.0 1014425
11:30+28всв23660 0.0 1012921
14:30+28ссв32640 0.0 1009884
17:30+24с00780 0.0 101011
20:30+23ююз11840 0.2 101215
27 октября, ср
ср2723:30+21ююв11910 1.2 101312
02:30+20вюв11940 0.4 101211
05:30+20в11940 0.4 101411
08:30+24всв238320 0.0 1016480
11:30+27всв33683 0.0 1013944
14:30+28св23650 0.0 1010892
17:30+24св11820 0.6 101011
20:30+23в01860 0.3 101212
28 октября, чт
чт2823:30+21ююв11930 1.4 101212
02:30+20юв01940 0.1 101211
05:30+20в11950 0.1 101320
08:30+24всв238321 0.0 1015472
11:30+28всв34680 0.0 1012851
14:30+28всв34650 0.0 1010894
17:30+24св22800 0.1 101112
20:30+23всв11850 0.0 101314
29 октября, пт
пт2923:30+22вюв11890 0.0 101320
02:30+21вюв11910 0.0 101317
05:30+20в22930 0.0 101436
08:30+24всв34793 0.0 1016463
11:30+28всв34630 0.0 1014863
14:30+28всв34620 0.0 1011696
17:30+24всв12770 0.0 101111
20:30+23всв11830 0.0 101313